Location: Seven Kings
(51.5667°N, 0.1000°E)
Time: 03:44:07
(UTC+00:00)

ATLAS 2AS CENTAUR R/B - Pass Details

Date: 29 October 2020
Orbit: 939 x 1273 km, 63.7° (Epoch: 23 November)

Event Time Altitude Azimuth Distance (km) Brightness Sun altitude
Rises 20:02:58 0° 315° (NW) 4,152 6.7 -32.2°
Reaches altitude 10° 20:05:52 10° 311° (NW) 3,144 5.9 -32.6°
Maximum altitude 20:13:07 54° 238° (WSW) 1,352 3.2 -33.7°
Enters shadow 20:13:44 53° 219° (SW) 1,366 3.2 -33.7°
